Regional Weather Roundup
Issued by NWS

Home | Current Version | Previous Version | Graphics & Text | Print | Product List | Glossary On
Versions: 1 2 3 4 5 6 7 8 9 10 11 12 13 14 15 16 17 18 19 20 21 22 23 24 25 26 27 28 29 30 31 32 33 34 35 36 37 38 39 40 41 42 43 44 45 46 47 48 49 50
000
ASUS43 KBIS 172201
RWRND

NORTH DAKOTA REGIONAL WEATHER ROUNDUP
NATIONAL WEATHER SERVICE BISMARCK ND
500 PM CDT FRI APR 17 2015

NOTE: "FAIR" INDICATES FEW OR NO CLOUDS BELOW 12,000 FEET WITH NO
SIGNIFICANT WEATHER AND/OR OBSTRUCTIONS TO VISIBILITY.


NDZ001>003-009>011-017-172300-
NORTHWEST NORTH DAKOTA

CITY           SKY/WX    TMP DP  RH WIND       PRES   REMARKS
WILLISTON      SUNNY     71  24  17 N9        30.09F
MINOT          SUNNY     69  29  22 N17       30.08F
MINOT AFB      SUNNY     67  30  25 N16       30.08F
$$

NDZ018>021-031>035-040>046-172300-
SOUTHWEST NORTH DAKOTA

CITY           SKY/WX    TMP DP  RH WIND       PRES   REMARKS
BISMARCK       MOSUNNY   71  24  17 CALM      30.08F
DICKINSON      MOSUNNY   69  17  13 VRB5      30.08F
GARRISON         N/A     73  26  17 N9G16     30.07F
HETTINGER ARPT PTSUNNY   66  21  18 VRB3      30.11F
$$

NDZ004>008-012>016-024-026-027-054-172300-
NORTHEAST NORTH DAKOTA

CITY           SKY/WX    TMP DP  RH WIND       PRES   REMARKS
GRAND FORKS    SUNNY     75  27  17 NW24G32   30.00R
GRND FRKS AFB  SUNNY     75  27  17 N16G26    30.01R
DEVILS LAKE    SUNNY     70  28  21 N21G28    30.04S
$$

NDZ022-023-025-028>030-036>039-047>053-172300-
SOUTHEAST NORTH DAKOTA

CITY           SKY/WX    TMP DP  RH WIND       PRES   REMARKS
FARGO          SUNNY     76  16  10 NW15G24   30.02F
JAMESTOWN      SUNNY     71  18  13 CALM      30.04F
$$




USA.gov is the U.S. government's official web portal to all federal, state and local government web resources and services.